This is the latest recevied weather packets stored in our database for station/object KB1ZFK. If no packets are shown the sender has not sent any weather packets the latest 10 day(s).
| Time | Temp. | Humidity | Pressure | Rain* | Wind** | Luminosity | Snow |
|---|---|---|---|---|---|---|---|
| 1777508302 | 7.22° C | 90% | 1012.6 hPa | 0 mm | - | 0 W/m² | - |
| 1777507999 | 7.22° C | 90% | 1012.5 hPa | 0 mm | - | 0 W/m² | - |
| 1777507695 | 7.22° C | 90% | 1012.4 hPa | 0 mm | - | 0 W/m² | - |
| 1777507392 | 7.22° C | 90% | 1012.4 hPa | 0 mm | - | 0 W/m² | - |
| 1777507090 | 7.78° C | 90% | 1012.5 hPa | 0 mm | - | 0 W/m² | - |
| 1777506787 | 7.78° C | 89% | 1012.5 hPa | 0 mm | - | 0 W/m² | - |
| 1777506484 | 7.78° C | 89% | 1012.5 hPa | 0 mm | - | 0 W/m² | - |
| 1777506179 | 7.78° C | 89% | 1012.6 hPa | 0 mm | - | 0 W/m² | - |
| 1777505875 | 7.78° C | 88% | 1012.7 hPa | 0 mm | - | 0 W/m² | - |
| 1777505571 | 8.33° C | 88% | 1012.7 hPa | 0 mm | - | 3 W/m² | - |
| 1777505268 | 8.33° C | 88% | 1012.6 hPa | 0 mm | - | 5 W/m² | - |
| 1777504965 | 8.33° C | 87% | 1012.8 hPa | 0 mm | - | 7 W/m² | - |
| 1777504661 | 8.33° C | 87% | 1012.4 hPa | 0 mm | - | 10 W/m² | - |
| 1777504359 | 8.89° C | 86% | 1012.4 hPa | 0 mm | - | 10 W/m² | - |
| 1777504053 | 8.89° C | 86% | 1012.5 hPa | 0 mm | - | 15 W/m² | - |
| 1777503750 | 8.89° C | 85% | 1012.6 hPa | 0 mm | - | 16 W/m² | - |
| 1777503447 | 9.44° C | 84% | 1012.5 hPa | 0 mm | - | 20 W/m² | - |
| 1777503142 | 9.44° C | 84% | 1012.6 hPa | 0 mm | - | 26 W/m² | - |
| 1777502841 | 9.44° C | 83% | 1012.7 hPa | 0 mm | - | 39 W/m² | - |
| 1777502538 | 10° C | 82% | 1012.5 hPa | 0 mm | - | 40 W/m² | - |
| 1777502235 | 10° C | 82% | 1012.5 hPa | 0 mm | - | 35 W/m² | - |
| 1777501932 | 10° C | 81% | 1012.6 hPa | 0 mm | - | 38 W/m² | - |
| 1777501629 | 10.56° C | 80% | 1012.7 hPa | 0 mm | - | 46 W/m² | - |
| 1777501325 | 10.56° C | 80% | 1012.6 hPa | 0 mm | - | 72 W/m² | - |
| 1777501023 | 10.56° C | 79% | 1012.8 hPa | 0 mm | - | 69 W/m² | - |
* Rain latest hour (hover to see other rain measurements)
** Current wind speed in m/s (hover to see current wind gust speed)